,,,PA_Meas_PMT16A,,PR_Meas_QMR101_102,,RH_Meas_QMH101,,SR_Meas_QMS101,,TA_Meas_QMH101,,GenWind,,GenWind,
date,time,status,PA,status,PR,status,RH,status,SR,status,TA,status,DirAvg,status,SpdAvg,
2009-05-20, 00:00:04,VALID,1003.57,VALID,0,VALID,88.6018,VALID,0,VALID,24.5406,VALID,4,VALID,0.0574219,
2009-05-20, 00:01:04,VALID,1003.54,VALID,0,VALID,88.7162,VALID,0,VALID,24.5017,VALID,4,VALID,0.480469,
2009-05-20, 00:02:04,VALID,1003.57,VALID,0,VALID,89.0367,VALID,0,VALID,24.4433,VALID,4,VALID,0.404687,
2009-05-20, 00:03:04,VALID,1003.58,VALID,0,VALID,89.3723,VALID,0,VALID,24.3849,VALID,4,VALID,0.305859,
2009-05-20, 00:04:04,VALID,1003.6,VALID,0,VALID,89.6546,VALID,0,VALID,24.3459,VALID,4,VALID,0.269531,
2009-05-20, 00:05:04,VALID,1003.62,VALID,0,VALID,89.914,VALID,0,VALID,24.2875,VALID,4,VALID,0.108594,
2009-05-20, 00:06:04,VALID,1003.64,VALID,0,VALID,89.9826,VALID,0,VALID,24.2875,VALID,4,VALID,0.0390625,
2009-05-20, 00:07:04,VALID,1003.63,VALID,0,VALID,90.0894,VALID,0,VALID,24.2875,VALID,4,VALID,0.108203,
2009-05-20, 00:08:04,VALID,1003.62,VALID,0,VALID,90.1963,VALID,0,VALID,24.2486,VALID,4,VALID,0.191406,
2009-05-20, 00:09:04,VALID,1003.63,VALID,0,VALID,90.2649,VALID,0,VALID,24.2486,VALID,4,VALID,0.35,
2009-05-20, 00:10:04,VALID,1003.59,VALID,0,VALID,90.3488,VALID,0,VALID,24.2486,VALID,4,VALID,0.478516,
2009-05-20, 00:11:04,VALID,1003.59,VALID,0,VALID,90.4099,VALID,0,VALID,24.2291,VALID,4,VALID,0.430859,
2009-05-20, 00:12:04,VALID,1003.57,VALID,0,VALID,90.4327,VALID,0,VALID,24.231,VALID,4,VALID,0.439453,
2009-05-20, 00:13:04,VALID,1003.57,VALID,0,VALID,90.3641,VALID,0,VALID,24.2097,VALID,4,VALID,0.473437,
2009-05-20, 00:14:04,VALID,1003.54,VALID,0,VALID,90.1352,VALID,0,VALID,24.2486,VALID,3,VALID,0.533594,
2009-05-20, 00:15:04,VALID,1003.55,VALID,0,VALID,89.8148,VALID,0,VALID,24.2875,VALID,334,VALID,0.53125,
2009-05-20, 00:16:04,VALID,1003.5,VALID,0,VALID,89.38,VALID,0,VALID,24.3459,VALID,351,VALID,0.588672,
2009-05-20, 00:17:04,VALID,1003.44,VALID,0,VALID,89.0367,VALID,0,VALID,24.4043,VALID,354,VALID,0.472266,
2009-05-20, 00:18:04,VALID,1003.44,VALID,0,VALID,88.7773,VALID,0,VALID,24.4628,VALID,355,VALID,0.261328,
2009-05-20, 00:19:04,VALID,1003.39,VALID,0,VALID,88.5942,VALID,0,VALID,24.4804,VALID,355,VALID,0.171875,
2009-05-20, 00:20:04,VALID,1003.39,VALID,0,VALID,88.3348,VALID,0,VALID,24.5212,VALID,355,VALID,0.535937,
2009-05-20, 00:21:04,VALID,1003.36,VALID,0,VALID,88.2661,VALID,0,VALID,24.5406,VALID,353,VALID,0.474609,
2009-05-20, 00:22:04,VALID,1003.34,VALID,0,VALID,88.1822,VALID,0,VALID,24.5601,VALID,348,VALID,0.465625,
2009-05-20, 00:23:04,VALID,1003.32,VALID,0,VALID,88.1593,VALID,0,VALID,24.5406,VALID,345,VALID,0.523438,
2009-05-20, 00:24:04,VALID,1003.32,VALID,0,VALID,88.0754,VALID,0,VALID,24.5212,VALID,345,VALID,0.382813,
2009-05-20, 00:25:04,VALID,1003.32,VALID,0,VALID,87.9915,VALID,0,VALID,24.5388,VALID,344,VALID,0.551172,
2009-05-20, 00:26:04,VALID,1003.29,VALID,0,VALID,88.0831,VALID,0,VALID,24.5601,VALID,344,VALID,0.478906,
2009-05-20, 00:27:04,VALID,1003.3,VALID,0,VALID,88.0831,VALID,0,VALID,24.5406,VALID,344,VALID,0.547656,
2009-05-20, 00:28:04,VALID,1003.26,VALID,0,VALID,88.0602,VALID,0,VALID,24.5017,VALID,344,VALID,0.449609,
2009-05-20, 00:29:04,VALID,1003.22,VALID,0,VALID,88.0449,VALID,0,VALID,24.5017,VALID,344,VALID,0.323438,
2009-05-20, 00:30:04,VALID,1003.2,VALID,0,VALID,88.0144,VALID,0,VALID,24.5406,VALID,344,VALID,0.374219,
2009-05-20, 00:31:04,VALID,1003.18,VALID,0,VALID,88.1059,VALID,0,VALID,24.5017,VALID,344,VALID,0.309375,
2009-05-20, 00:32:04,VALID,1003.16,VALID,0,VALID,88.2585,VALID,0,VALID,24.4822,VALID,344,VALID,0.130469,
2009-05-20, 00:33:04,VALID,1003.16,VALID,0,VALID,88.5484,VALID,0,VALID,24.422,VALID,344,VALID,0.2125,
2009-05-20, 00:34:04,VALID,1003.14,VALID,0,VALID,88.6476,VALID,0,VALID,24.4257,VALID,344,VALID,0.364844,
2009-05-20, 00:35:04,VALID,1003.11,VALID,0,VALID,88.8536,VALID,0,VALID,24.3849,VALID,344,VALID,0.295703,
2009-05-20, 00:36:04,VALID,1003.11,VALID,0,VALID,89.0443,VALID,0,VALID,24.3654,VALID,344,VALID,0.241016,
2009-05-20, 00:37:04,VALID,1003.1,VALID,0,VALID,89.1053,VALID,0,VALID,24.3478,VALID,344,VALID,0.399219,
2009-05-20, 00:38:04,VALID,1003.13,VALID,0,VALID,89.2884,VALID,0,VALID,24.307,VALID,344,VALID,0.373047,
2009-05-20, 00:39:04,VALID,1003.13,VALID,0,VALID,89.4944,VALID,0,VALID,24.307,VALID,344,VALID,0.345703,
2009-05-20, 00:40:04,VALID,1003.13,VALID,0,VALID,89.6546,VALID,0,VALID,24.2699,VALID,340,VALID,0.301953,
2009-05-20, 00:41:04,VALID,1003.15,VALID,0,VALID,89.7996,VALID,0,VALID,24.2486,VALID,340,VALID,0.294531,
2009-05-20, 00:42:04,VALID,1003.18,VALID,0,VALID,90.0208,VALID,0,VALID,24.2097,VALID,340,VALID,0.3875,
2009-05-20, 00:43:04,VALID,1003.17,VALID,0,VALID,90.12,VALID,0,VALID,24.1902,VALID,340,VALID,0.475391,
2009-05-20, 00:44:04,VALID,1003.2,VALID,0,VALID,89.9445,VALID,0,VALID,24.2486,VALID,340,VALID,0.605859,
2009-05-20, 00:45:04,VALID,1003.19,VALID,0,VALID,89.6393,VALID,0,VALID,24.2857,VALID,8,VALID,0.847656,
2009-05-20, 00:46:04,VALID,1003.2,VALID,0,VALID,89.3342,VALID,0,VALID,24.4238,VALID,357,VALID,0.720703,
2009-05-20, 00:47:04,VALID,1003.2,VALID,0,VALID,88.8002,VALID,0,VALID,24.4609,VALID,351,VALID,0.590625,
2009-05-20, 00:48:04,VALID,1003.23,VALID,0,VALID,88.3653,VALID,0,VALID,24.5601,VALID,343,VALID,0.65625,
2009-05-20, 00:49:04,VALID,1003.22,VALID,0,VALID,88.0449,VALID,0,VALID,24.6185,VALID,357,VALID,0.683594,
2009-05-20, 00:50:04,VALID,1003.24,VALID,0,VALID,87.8389,VALID,0,VALID,24.638,VALID,346,VALID,0.799609,
2009-05-20, 00:51:04,VALID,1003.25,VALID,0,VALID,87.7703,VALID,0,VALID,24.6964,VALID,349,VALID,0.617969,
2009-05-20, 00:52:04,VALID,1003.27,VALID,0,VALID,87.6635,VALID,0,VALID,24.6964,VALID,351,VALID,0.466406,
2009-05-20, 00:53:04,VALID,1003.27,VALID,0,VALID,87.7092,VALID,0,VALID,24.6964,VALID,349,VALID,0.48125,
2009-05-20, 00:54:04,VALID,1003.28,VALID,0,VALID,87.7245,VALID,0,VALID,24.6964,VALID,347,VALID,0.472266,
2009-05-20, 00:55:04,VALID,1003.3,VALID,0,VALID,87.5567,VALID,0,VALID,24.7353,VALID,354,VALID,0.717969,
2009-05-20, 00:56:04,VALID,1003.28,VALID,0,VALID,87.3736,VALID,0,VALID,24.7956,VALID,343,VALID,0.309375,
2009-05-20, 00:57:04,VALID,1003.28,VALID,0,VALID,87.1828,VALID,0,VALID,24.7937,VALID,341,VALID,0.547656,
2009-05-20, 00:58:04,VALID,1003.28,VALID,0,VALID,87.0303,VALID,0,VALID,24.8327,VALID,337,VALID,0.791016,
2009-05-20, 00:59:04,VALID,1003.29,VALID,0,VALID,86.8243,VALID,0,VALID,24.8716,VALID,350,VALID,0.648828,
2009-05-20, 01:00:04,VALID,1003.27,VALID,0,VALID,86.6641,VALID,0,VALID,24.9106,VALID,334,VALID,0.785547,
2009-05-20, 01:01:04,VALID,1003.27,VALID,0,VALID,86.5649,VALID,0,VALID,24.9476,VALID,348,VALID,0.769531,
2009-05-20, 01:02:04,VALID,1003.24,VALID,0,VALID,86.3513,VALID,0,VALID,25.0079,VALID,357,VALID,1.04453,
2009-05-20, 01:03:04,VALID,1003.22,VALID,0,VALID,86.2598,VALID,0,VALID,25.0877,VALID,354,VALID,0.756641,
2009-05-20, 01:04:04,VALID,1003.19,VALID,0,VALID,86.1148,VALID,0,VALID,25.0858,VALID,328,VALID,0.353516,
2009-05-20, 01:05:04,VALID,1003.17,VALID,0,VALID,86.1758,VALID,0,VALID,25.0858,VALID,337,VALID,0.808984,
2009-05-20, 01:06:04,VALID,1003.11,VALID,0,VALID,86.1453,VALID,0,VALID,25.0858,VALID,316,VALID,1.10117,
2009-05-20, 01:07:04,VALID,1003.11,VALID,0,VALID,86.1835,VALID,0,VALID,25.0858,VALID,337,VALID,0.854297,
2009-05-20, 01:08:04,VALID,1003.11,VALID,0,VALID,86.0309,VALID,0,VALID,25.1267,VALID,349,VALID,1.1293,
2009-05-20, 01:09:04,VALID,1003.06,VALID,0,VALID,85.9927,VALID,0,VALID,25.1442,VALID,353,VALID,0.791406,
2009-05-20, 01:10:04,VALID,1003.06,VALID,0,VALID,85.8936,VALID,0,VALID,25.1442,VALID,332,VALID,0.758203,
2009-05-20, 01:11:04,VALID,1003.06,VALID,0,VALID,85.8402,VALID,0,VALID,25.1442,VALID,349,VALID,0.735156,
2009-05-20, 01:12:04,VALID,1003.07,VALID,0,VALID,85.9622,VALID,0,VALID,25.1442,VALID,2,VALID,0.744922,
2009-05-20, 01:13:04,VALID,1003.05,VALID,0,VALID,86.0385,VALID,0,VALID,25.1229,VALID,341,VALID,0.687891,
2009-05-20, 01:14:04,VALID,1003.06,VALID,0,VALID,86.214,VALID,0,VALID,25.1248,VALID,348,VALID,0.655469,
2009-05-20, 01:15:04,VALID,1003.06,VALID,0,VALID,86.4352,VALID,0,VALID,25.0858,VALID,356,VALID,1.02656,
2009-05-20, 01:16:04,VALID,1003.06,VALID,0,VALID,86.6565,VALID,0,VALID,25.0469,VALID,1,VALID,1.04609,
2009-05-20, 01:17:04,VALID,1003.03,VALID,0,VALID,86.7785,VALID,0,VALID,25.0663,VALID,354,VALID,1.04648,
2009-05-20, 01:18:04,VALID,1003.03,VALID,0,VALID,86.7861,VALID,0,VALID,25.0877,VALID,345,VALID,1.32305,
2009-05-20, 01:19:04,VALID,1003.01,VALID,0,VALID,86.6793,VALID,0,VALID,25.1053,VALID,350,VALID,0.969922,
2009-05-20, 01:20:04,VALID,1002.98,VALID,0,VALID,86.5725,VALID,0,VALID,25.1248,VALID,349,VALID,1.0168,
2009-05-20, 01:21:04,VALID,1002.95,VALID,0,VALID,86.6031,VALID,0,VALID,25.1248,VALID,356,VALID,0.720312,
2009-05-20, 01:22:04,VALID,1002.95,VALID,0,VALID,86.687,VALID,0,VALID,25.1053,VALID,350,VALID,0.924219,
2009-05-20, 01:23:04,VALID,1002.92,VALID,0,VALID,86.8701,VALID,0,VALID,25.1053,VALID,355,VALID,0.746875,
2009-05-20, 01:24:04,VALID,1002.98,VALID,0,VALID,87.0379,VALID,0,VALID,25.0663,VALID,336,VALID,0.741406,
2009-05-20, 01:25:04,VALID,1002.98,VALID,0,VALID,87.2134,VALID,0,VALID,25.0274,VALID,357,VALID,0.323047,
2009-05-20, 01:26:04,VALID,1003.04,VALID,0,VALID,87.3965,VALID,0,VALID,25.0079,VALID,353,VALID,0.984766,
2009-05-20, 01:27:04,VALID,1003.02,VALID,0,VALID,87.488,VALID,0,VALID,25.006,VALID,354,VALID,1.35391,
2009-05-20, 01:28:04,VALID,1003.02,VALID,0,VALID,87.4575,VALID,0,VALID,25.0255,VALID,2,VALID,0.844922,
2009-05-20, 01:29:04,VALID,1003.02,VALID,0,VALID,87.3965,VALID,0,VALID,25.0255,VALID,344,VALID,0.455469,
2009-05-20, 01:30:04,VALID,1003.03,VALID,0,VALID,87.4193,VALID,0,VALID,25.045,VALID,350,VALID,1.07656,
2009-05-20, 01:31:04,VALID,1003.03,VALID,0,VALID,87.4575,VALID,0,VALID,25.045,VALID,360,VALID,0.628906,
2009-05-20, 01:32:04,VALID,1003.05,VALID,0,VALID,87.549,VALID,0,VALID,25.0255,VALID,348,VALID,0.971094,
2009-05-20, 01:33:04,VALID,1003.08,VALID,0,VALID,87.5414,VALID,0,VALID,25.0255,VALID,349,VALID,0.819922,
2009-05-20, 01:34:04,VALID,1003.07,VALID,0,VALID,87.5414,VALID,0,VALID,25.0255,VALID,352,VALID,0.976563,
2009-05-20, 01:35:04,VALID,1003.11,VALID,0,VALID,87.5795,VALID,0.100563,VALID,24.9847,VALID,354,VALID,0.856641,
2009-05-20, 01:36:04,VALID,1003.11,VALID,0,VALID,87.6635,VALID,0,VALID,25.006,VALID,350,VALID,1.30156,
2009-05-20, 01:37:04,VALID,1003.09,VALID,0,VALID,87.6635,VALID,0,VALID,25.0274,VALID,358,VALID,0.898828,
2009-05-20, 01:38:04,VALID,1003.09,VALID,0,VALID,87.6406,VALID,0,VALID,25.0274,VALID,349,VALID,0.760156,
2009-05-20, 01:39:04,VALID,1003.03,VALID,0,VALID,87.694,VALID,0.100563,VALID,25.006,VALID,348,VALID,0.422266,
2009-05-20, 01:40:04,VALID,1002.99,VALID,0,VALID,87.7169,VALID,0,VALID,24.9866,VALID,353,VALID,0.882031,
2009-05-20, 01:41:04,VALID,1002.98,VALID,0,VALID,87.694,VALID,0.100563,VALID,24.9866,VALID,334,VALID,1.13711,
2009-05-20, 01:42:04,VALID,1002.93,VALID,0,VALID,87.6635,VALID,0,VALID,24.9885,VALID,349,VALID,1.13047,
2009-05-20, 01:43:04,VALID,1002.94,VALID,0,VALID,87.6558,VALID,0,VALID,24.9885,VALID,350,VALID,0.732422,
2009-05-20, 01:44:04,VALID,1002.96,VALID,0,VALID,87.549,VALID,0,VALID,25.0079,VALID,335,VALID,1.14453,
2009-05-20, 01:45:04,VALID,1002.97,VALID,0,VALID,87.5795,VALID,0,VALID,24.9866,VALID,350,VALID,0.798437,
2009-05-20, 01:46:04,VALID,1002.99,VALID,0,VALID,87.5872,VALID,0,VALID,25.0079,VALID,346,VALID,0.463281,
2009-05-20, 01:47:04,VALID,1003.02,VALID,0,VALID,87.6482,VALID,0,VALID,24.9885,VALID,322,VALID,0.363281,
2009-05-20, 01:48:04,VALID,1003.06,VALID,0,VALID,87.6329,VALID,0,VALID,24.9885,VALID,349,VALID,0.865234,
2009-05-20, 01:49:04,VALID,1003.04,VALID,0,VALID,87.6863,VALID,0,VALID,24.9476,VALID,355,VALID,0.630078,
2009-05-20, 01:50:04,VALID,1003.07,VALID,0,VALID,87.7016,VALID,0,VALID,24.9495,VALID,348,VALID,0.450781,
2009-05-20, 01:51:04,VALID,1003.06,VALID,0,VALID,87.7703,VALID,0,VALID,24.969,VALID,333,VALID,0.260547,
2009-05-20, 01:52:04,VALID,1003.07,VALID,0,VALID,87.8237,VALID,0,VALID,24.9709,VALID,350,VALID,0.515234,
2009-05-20, 01:53:04,VALID,1003.05,VALID,0,VALID,87.816,VALID,0,VALID,24.93,VALID,357,VALID,0.815234,
2009-05-20, 01:54:04,VALID,1003.04,VALID,0,VALID,87.961,VALID,0,VALID,24.8892,VALID,359,VALID,0.701172,
2009-05-20, 01:55:04,VALID,1003.04,VALID,0,VALID,88.0296,VALID,0,VALID,24.8911,VALID,359,VALID,0.727734,
2009-05-20, 01:56:04,VALID,1003.05,VALID,0,VALID,88.0907,VALID,0,VALID,24.9143,VALID,356,VALID,0.861328,
2009-05-20, 01:57:04,VALID,1002.98,VALID,0,VALID,88.0831,VALID,0,VALID,24.8892,VALID,346,VALID,0.839063,
2009-05-20, 01:58:04,VALID,1003,VALID,0,VALID,88.0373,VALID,0,VALID,24.93,VALID,359,VALID,1.00312,
2009-05-20, 01:59:04,VALID,1002.98,VALID,0,VALID,87.9991,VALID,0,VALID,24.9282,VALID,296,VALID,0.517578,
2009-05-20, 02:00:04,VALID,1002.93,VALID,0,VALID,88.0144,VALID,0,VALID,24.9476,VALID,337,VALID,0.666797,
2009-05-20, 02:01:04,VALID,1002.94,VALID,0,VALID,88.0068,VALID,0,VALID,24.9282,VALID,354,VALID,0.90625,
2009-05-20, 02:02:04,VALID,1002.92,VALID,0,VALID,88.0144,VALID,0,VALID,24.9282,VALID,19,VALID,0.461719,
2009-05-20, 02:03:04,VALID,1002.91,VALID,0,VALID,87.9991,VALID,0.100563,VALID,24.9476,VALID,8,VALID,0.176172,
2009-05-20, 02:04:04,VALID,1002.94,VALID,0,VALID,88.0983,VALID,0,VALID,24.9476,VALID,8,VALID,0,
2009-05-20, 02:05:04,VALID,1002.92,VALID,0,VALID,88.1593,VALID,0,VALID,24.9282,VALID,8,VALID,0.144922,
2009-05-20, 02:06:04,VALID,1002.93,VALID,0,VALID,88.1822,VALID,0.100563,VALID,24.9282,VALID,8,VALID,0,
2009-05-20, 02:07:04,VALID,1002.95,VALID,0,VALID,88.289,VALID,0.100563,VALID,24.9282,VALID,8,VALID,0.255469,
2009-05-20, 02:08:04,VALID,1002.95,VALID,0,VALID,88.3882,VALID,0,VALID,24.93,VALID,339,VALID,0.40625,
2009-05-20, 02:09:04,VALID,1002.93,VALID,0,VALID,88.4111,VALID,0,VALID,24.9282,VALID,331,VALID,0.239844,
2009-05-20, 02:10:04,VALID,1002.95,VALID,0,VALID,88.3729,VALID,0,VALID,24.9495,VALID,337,VALID,0.460547,
2009-05-20, 02:11:04,VALID,1002.93,VALID,0,VALID,88.4035,VALID,0.100563,VALID,24.9282,VALID,331,VALID,0.196484,
2009-05-20, 02:12:04,VALID,1002.9,VALID,0,VALID,88.4569,VALID,0.100563,VALID,24.9495,VALID,337,VALID,0.527344,
2009-05-20, 02:13:04,VALID,1002.92,VALID,0,VALID,88.5103,VALID,0,VALID,24.9087,VALID,341,VALID,0.0140625,
2009-05-20, 02:14:04,VALID,1002.89,VALID,0,VALID,88.6323,VALID,0,VALID,24.93,VALID,331,VALID,0.106641,
2009-05-20, 02:15:04,VALID,1002.88,VALID,0,VALID,88.6857,VALID,0.100563,VALID,24.93,VALID,338,VALID,0.425391,
2009-05-20, 02:16:04,VALID,1002.87,VALID,0,VALID,88.762,VALID,0,VALID,24.8892,VALID,338,VALID,0.262109,
2009-05-20, 02:17:04,VALID,1002.88,VALID,0,VALID,88.8841,VALID,0,VALID,24.8892,VALID,289,VALID,0.848828,
2009-05-20, 02:18:04,VALID,1002.83,VALID,0,VALID,88.8993,VALID,0,VALID,24.8892,VALID,290,VALID,0.171484,
2009-05-20, 02:19:04,VALID,1002.86,VALID,0,VALID,88.8993,VALID,0,VALID,24.8911,VALID,291,VALID,0.101953,
2009-05-20, 02:20:04,VALID,1002.83,VALID,0,VALID,88.8841,VALID,0,VALID,24.8911,VALID,347,VALID,0.360156,
2009-05-20, 02:21:04,VALID,1002.83,VALID,0,VALID,88.8993,VALID,0,VALID,24.8503,VALID,347,VALID,0.327734,
2009-05-20, 02:22:04,VALID,1002.82,VALID,0,VALID,88.9985,VALID,0,VALID,24.8522,VALID,347,VALID,0.451953,
2009-05-20, 02:23:04,VALID,1002.82,VALID,0,VALID,89.1511,VALID,0,VALID,24.7937,VALID,347,VALID,0.367188,
2009-05-20, 02:24:04,VALID,1002.79,VALID,0,VALID,89.4334,VALID,0,VALID,24.7353,VALID,347,VALID,0.494141,
2009-05-20, 02:25:04,VALID,1002.81,VALID,0,VALID,89.647,VALID,0,VALID,24.6964,VALID,347,VALID,0.0121094,
2009-05-20, 02:26:04,VALID,1002.79,VALID,0,VALID,89.7233,VALID,0,VALID,24.6361,VALID,347,VALID,0,
2009-05-20, 02:27:04,VALID,1002.75,VALID,0,VALID,89.8987,VALID,0,VALID,24.5972,VALID,347,VALID,0.185547,
2009-05-20, 02:28:04,VALID,1002.73,VALID,0,VALID,90.1581,VALID,0,VALID,24.5582,VALID,347,VALID,0.132813,
2009-05-20, 02:29:04,VALID,1002.7,VALID,0,VALID,90.3183,VALID,0,VALID,24.5388,VALID,347,VALID,0,
2009-05-20, 02:30:04,VALID,1002.69,VALID,0,VALID,90.4556,VALID,0,VALID,24.5017,VALID,347,VALID,0,
2009-05-20, 02:31:04,VALID,1002.66,VALID,0,VALID,90.6387,VALID,0,VALID,24.4609,VALID,347,VALID,0.136328,
2009-05-20, 02:32:04,VALID,1002.7,VALID,0,VALID,90.7989,VALID,0,VALID,24.422,VALID,347,VALID,0.241406,
2009-05-20, 02:33:04,VALID,1002.74,VALID,0,VALID,90.9439,VALID,0,VALID,24.383,VALID,242,VALID,0.886719,
2009-05-20, 02:34:04,VALID,1002.76,VALID,0,VALID,91.2872,VALID,0,VALID,24.3459,VALID,187,VALID,1.0375,
2009-05-20, 02:35:04,VALID,1002.75,VALID,0,VALID,91.5542,VALID,0,VALID,24.3265,VALID,179,VALID,0.734766,
2009-05-20, 02:36:04,VALID,1002.76,VALID,0,VALID,91.6229,VALID,0,VALID,24.3052,VALID,182,VALID,0.302734,
2009-05-20, 02:37:04,VALID,1002.74,VALID,0,VALID,91.6305,VALID,0,VALID,24.2857,VALID,182,VALID,0.251172,
2009-05-20, 02:38:04,VALID,1002.71,VALID,0,VALID,91.661,VALID,0,VALID,24.2857,VALID,182,VALID,0.153125,
2009-05-20, 02:39:04,VALID,1002.66,VALID,0,VALID,91.7297,VALID,0,VALID,24.2857,VALID,182,VALID,0.00195313,
2009-05-20, 02:40:04,VALID,1002.68,VALID,0,VALID,91.722,VALID,0,VALID,24.2857,VALID,182,VALID,0.373437,
2009-05-20, 02:41:04,VALID,1002.63,VALID,0,VALID,91.6686,VALID,0,VALID,24.2875,VALID,182,VALID,0.245312,
2009-05-20, 02:42:04,VALID,1002.67,VALID,0,VALID,91.6381,VALID,0,VALID,24.2681,VALID,182,VALID,0.207422,
2009-05-20, 02:43:04,VALID,1002.62,VALID,0,VALID,91.6991,VALID,0,VALID,24.2273,VALID,182,VALID,0.0585938,
2009-05-20, 02:44:04,VALID,1002.64,VALID,0,VALID,91.7297,VALID,0,VALID,24.1884,VALID,182,VALID,0.0835937,
2009-05-20, 02:45:04,VALID,1002.62,VALID,0,VALID,91.7602,VALID,0,VALID,24.1707,VALID,182,VALID,0,
2009-05-20, 02:46:04,VALID,1002.61,VALID,0,VALID,91.8212,VALID,0.100563,VALID,24.1105,VALID,182,VALID,0.386719,
2009-05-20, 02:47:04,VALID,1002.6,VALID,0,VALID,91.9051,VALID,0,VALID,24.0326,VALID,182,VALID,0.244531,
2009-05-20, 02:48:04,VALID,1002.59,VALID,0,VALID,92.0119,VALID,0.100563,VALID,23.9937,VALID,182,VALID,0.153125,
2009-05-20, 02:49:04,VALID,1002.59,VALID,0,VALID,92.2103,VALID,0.100563,VALID,23.9955,VALID,182,VALID,0.258594,
2009-05-20, 02:50:04,VALID,1002.58,VALID,0,VALID,92.3934,VALID,0,VALID,23.9548,VALID,182,VALID,0.326172,
2009-05-20, 02:51:04,VALID,1002.6,VALID,0,VALID,92.5078,VALID,0,VALID,23.9353,VALID,36,VALID,0.722266,
2009-05-20, 02:52:04,VALID,1002.59,VALID,0,VALID,92.6222,VALID,0,VALID,23.9159,VALID,36,VALID,0.6,
2009-05-20, 02:53:04,VALID,1002.62,VALID,0,VALID,92.7214,VALID,0,VALID,23.8769,VALID,32,VALID,0.728906,
2009-05-20, 02:54:04,VALID,1002.62,VALID,0,VALID,92.874,VALID,0,VALID,23.8575,VALID,32,VALID,0.588672,
2009-05-20, 02:55:04,VALID,1002.63,VALID,0,VALID,92.9732,VALID,0.100563,VALID,23.838,VALID,32,VALID,0.4,
2009-05-20, 02:56:04,VALID,1002.65,VALID,0,VALID,93.0723,VALID,0,VALID,23.8185,VALID,32,VALID,0.332812,
2009-05-20, 02:57:04,VALID,1002.66,VALID,0,VALID,93.2631,VALID,0,VALID,23.8416,VALID,32,VALID,0.380469,
2009-05-20, 02:58:04,VALID,1002.66,VALID,0,VALID,93.4156,VALID,0,VALID,23.8593,VALID,32,VALID,0.314063,
2009-05-20, 02:59:04,VALID,1002.67,VALID,0,VALID,93.408,VALID,0,VALID,23.8593,VALID,32,VALID,0.308594,
2009-05-20, 03:00:04,VALID,1002.67,VALID,0,VALID,93.3851,VALID,0,VALID,23.8203,VALID,32,VALID,0.334375,
2009-05-20, 03:01:04,VALID,1002.66,VALID,0,VALID,93.4614,VALID,0,VALID,23.7991,VALID,32,VALID,0.23125,
2009-05-20, 03:02:04,VALID,1002.6,VALID,0,VALID,93.4614,VALID,0,VALID,23.8027,VALID,32,VALID,0.231641,
2009-05-20, 03:03:04,VALID,1002.61,VALID,0,VALID,93.5377,VALID,0,VALID,23.8009,VALID,32,VALID,0.365234,
2009-05-20, 03:04:04,VALID,1002.54,VALID,0,VALID,93.5987,VALID,0,VALID,23.7814,VALID,36,VALID,0.383594,
2009-05-20, 03:05:04,VALID,1002.53,VALID,0,VALID,93.7132,VALID,0,VALID,23.8009,VALID,51,VALID,0.501172,
2009-05-20, 03:06:04,VALID,1002.5,VALID,0,VALID,93.7666,VALID,0,VALID,23.8203,VALID,51,VALID,0.432813,
2009-05-20, 03:07:04,VALID,1002.49,VALID,0,VALID,93.7742,VALID,0,VALID,23.8009,VALID,50,VALID,0.758594,
2009-05-20, 03:08:04,VALID,1002.45,VALID,0,VALID,93.7742,VALID,0,VALID,23.8009,VALID,49,VALID,0.638672,
2009-05-20, 03:09:04,VALID,1002.45,VALID,0,VALID,93.82,VALID,0,VALID,23.8009,VALID,49,VALID,0.470313,
2009-05-20, 03:10:04,VALID,1002.45,VALID,0,VALID,93.8581,VALID,0,VALID,23.7814,VALID,49,VALID,0.105078,
2009-05-20, 03:11:04,VALID,1002.43,VALID,0,VALID,93.8963,VALID,0,VALID,23.7814,VALID,49,VALID,0,
2009-05-20, 03:12:04,VALID,1002.46,VALID,0,VALID,93.942,VALID,0,VALID,23.7814,VALID,49,VALID,0,
2009-05-20, 03:13:04,VALID,1002.44,VALID,0,VALID,93.9497,VALID,0,VALID,23.7814,VALID,49,VALID,0.197656,
2009-05-20, 03:14:04,VALID,1002.45,VALID,0,VALID,93.9725,VALID,0,VALID,23.7832,VALID,49,VALID,0.0765625,
2009-05-20, 03:15:04,VALID,1002.41,VALID,0,VALID,93.9954,VALID,0,VALID,23.7814,VALID,49,VALID,0.320313,
2009-05-20, 03:16:04,VALID,1002.43,VALID,0,VALID,94.0946,VALID,0,VALID,23.8027,VALID,49,VALID,0.632813,
2009-05-20, 03:17:04,VALID,1002.4,VALID,0,VALID,94.1251,VALID,0,VALID,23.7814,VALID,49,VALID,0.227344,
2009-05-20, 03:18:04,VALID,1002.39,VALID,0,VALID,94.1404,VALID,0,VALID,23.8009,VALID,49,VALID,0.0890625,
2009-05-20, 03:19:04,VALID,1002.4,VALID,0,VALID,94.1404,VALID,0,VALID,23.8009,VALID,49,VALID,0,
2009-05-20, 03:20:04,VALID,1002.42,VALID,0,VALID,94.1556,VALID,0,VALID,23.8009,VALID,49,VALID,0,
2009-05-20, 03:21:04,VALID,1002.44,VALID,0,VALID,94.1785,VALID,0,VALID,23.7814,VALID,49,VALID,0,
2009-05-20, 03:22:04,VALID,1002.45,VALID,0,VALID,94.1099,VALID,0,VALID,23.7619,VALID,49,VALID,0,
2009-05-20, 03:23:04,VALID,1002.49,VALID,0,VALID,94.1633,VALID,0,VALID,23.7619,VALID,49,VALID,0,
2009-05-20, 03:24:04,VALID,1002.48,VALID,0,VALID,94.1633,VALID,0,VALID,23.7425,VALID,49,VALID,0,
2009-05-20, 03:25:04,VALID,1002.47,VALID,0,VALID,94.1556,VALID,0,VALID,23.723,VALID,49,VALID,0.233594,
2009-05-20, 03:26:04,VALID,1002.5,VALID,0,VALID,94.1709,VALID,0,VALID,23.7035,VALID,49,VALID,0.439453,
2009-05-20, 03:27:04,VALID,1002.53,VALID,0,VALID,94.087,VALID,0,VALID,23.6841,VALID,49,VALID,0.546094,
2009-05-20, 03:28:04,VALID,1002.49,VALID,0,VALID,94.0717,VALID,0,VALID,23.6257,VALID,49,VALID,0.306641,
2009-05-20, 03:29:04,VALID,1002.52,VALID,0,VALID,94.2396,VALID,0,VALID,23.6452,VALID,49,VALID,0.435547,
2009-05-20, 03:30:04,VALID,1002.53,VALID,0,VALID,94.3998,VALID,0,VALID,23.7035,VALID,49,VALID,0.222656,
2009-05-20, 03:31:04,VALID,1002.53,VALID,0,VALID,94.4761,VALID,0,VALID,23.723,VALID,49,VALID,0.336719,
2009-05-20, 03:32:04,VALID,1002.55,VALID,0,VALID,94.4837,VALID,0,VALID,23.7619,VALID,49,VALID,0.218359,
2009-05-20, 03:33:04,VALID,1002.57,VALID,0,VALID,94.3921,VALID,0,VALID,23.7619,VALID,49,VALID,0,
2009-05-20, 03:34:04,VALID,1002.6,VALID,0,VALID,94.3616,VALID,0,VALID,23.7425,VALID,49,VALID,0.00273437,
2009-05-20, 03:35:04,VALID,1002.61,VALID,0,VALID,94.4532,VALID,0,VALID,23.7425,VALID,49,VALID,0.157031,
2009-05-20, 03:36:04,VALID,1002.64,VALID,0,VALID,94.5218,VALID,0,VALID,23.7619,VALID,49,VALID,0.0210938,
2009-05-20, 03:37:04,VALID,1002.65,VALID,0,VALID,94.4837,VALID,0,VALID,23.7619,VALID,49,VALID,0.0328125,
2009-05-20, 03:38:04,VALID,1002.67,VALID,0,VALID,94.4608,VALID,0,VALID,23.7425,VALID,49,VALID,0,
2009-05-20, 03:39:04,VALID,1002.7,VALID,0,VALID,94.5142,VALID,0,VALID,23.7425,VALID,49,VALID,0,
2009-05-20, 03:40:04,VALID,1002.69,VALID,0,VALID,94.5523,VALID,0,VALID,23.7832,VALID,49,VALID,0.20625,
2009-05-20, 03:41:04,VALID,1002.69,VALID,0,VALID,94.4837,VALID,0,VALID,23.7619,VALID,49,VALID,0.166797,
2009-05-20, 03:42:04,VALID,1002.68,VALID,0,VALID,94.4608,VALID,0,VALID,23.7425,VALID,49,VALID,0.377734,
2009-05-20, 03:43:04,VALID,1002.67,VALID,0,VALID,94.4532,VALID,0,VALID,23.723,VALID,49,VALID,0.334766,
2009-05-20, 03:44:04,VALID,1002.65,VALID,0,VALID,94.4837,VALID,0,VALID,23.7017,VALID,49,VALID,0.273047,
2009-05-20, 03:45:04,VALID,1002.67,VALID,0,VALID,94.4913,VALID,0,VALID,23.6823,VALID,35,VALID,0.6,